Regional Weather Roundup
Issued by NWS Upton, NY

Current Version | Previous Version | Text Only | Print | Product List | Glossary On
Versions: 1 2 3 4 5 6 7 8 9 10 11 12 13 14 15 16 17 18 19 20 21 22 23 24 25 26 27
000
ASUS41 KOKX 241705
RWROKX
REGIONAL WEATHER ROUNDUP
NATIONAL WEATHER SERVICE NEW YORK NY
100 PM EDT FRI OCT 24 2014

NOTE: "FAIR" INDICATES FEW OR NO CLOUDS BELOW 12,000 FEET WITH NO
SIGNIFICANT WEATHER AND/OR OBSTRUCTIONS TO VISIBILITY.

NYZ071-072-176-178-NJZ106-104-241800-
NEW YORK CITY METRO AREA


CITY           SKY/WX    TMP DP  RH WIND       PRES   REMARKS
CENTRAL PARK   CLOUDY    58  42  55 NW7       29.81F
LAGUARDIA APRT PTSUNNY   58  43  57 NW18G24   29.78F
KENNEDY INTL   PTSUNNY   59  42  53 NW18G24   29.79F
NEWARK/LIBERTY PTSUNNY   59  44  57 NW13G22   29.80F
BRNX BOT. GARD   N/A     57  43  58 NW12      29.81F
TETERBORO      CLOUDY    59  43  55 NW15G24   29.78F
$$

NYZ177-179-078>081-241800-
LONG ISLAND NEW YORK

CITY           SKY/WX    TMP DP  RH WIND       PRES   REMARKS
FARMINGDALE    CLOUDY    57  44  62 NW9       29.78F
ISLIP          CLOUDY    56  45  66 NW18G29   29.75F
SHIRLEY        CLOUDY    54  45  71 N12G24    29.77F
WESTHAMPTON    CLOUDY    54  46  74 NW10G18   29.76F
MONTAUK POINT    N/A     55  45  68 N13       29.73F
$$

NYZ052-065-067-241800-
HUDSON VALLEY

CITY           SKY/WX    TMP DP  RH WIND       PRES   REMARKS
WHITE PLAINS   PTSUNNY   54  42  64 NW13G24   29.77F
NEWBURGH       PTSUNNY   55  46  71 N12       29.81F
MONTGOMERY     CLOUDY    57  43  59 NW12      29.79F
POUGHKEEPSIE   PTSUNNY   56  43  61 N6        29.80F
ALBANY         CLOUDY    49  46  90 NE5       29.83F
$$

NJZ001-105-106-008-010-013-015-019>022-104-241800-
NEW JERSEY

CITY           SKY/WX    TMP DP  RH WIND       PRES   REMARKS
NEWARK/LIBERTY PTSUNNY   59  44  57 NW13G22   29.80F
TETERBORO      CLOUDY    59  43  55 NW15G24   29.78F
CALDWELL       CLOUDY    59  43  55 NW9G18    29.80F
MORRISTOWN     PTSUNNY   59  45  58 N10G24    29.82F
SOMERVILLE     SUNNY     64  42  44 NW14G22   29.79F
SUSSEX         PTSUNNY   63  43  48 NW10G21   29.81F
ANDOVER          N/A     61  43  51 VRB7G20   29.80F
TRENTON        MOSUNNY   64  42  44 N16G25    29.81F
MILLVILLE      MOSUNNY   66  45  46 NW15G23   29.85F
ATLANTIC CITY  PTSUNNY   64  46  52 NW22G28   29.82F
WRIGHTSTOWN    SUNNY     63  44  50 NW16G26   29.80F
TOMS RIVER     PTSUNNY   61  45  55 NW7       29.82F
BELMAR         MOSUNNY   61  43  51 NW21      29.81F
$$

PAZ047>061-062-071-241800-
EASTERN PENNSYLVANIA

CITY           SKY/WX    TMP DP  RH WIND       PRES   REMARKS
PHILADELPHIA   MOSUNNY   66  43  43 NW20      29.84F
ALLENTOWN      SUNNY     65  42  43 NW20G26   29.84F
SCRANTON       MOSUNNY   63  42  46 NW18G28   29.87F
$$

CTZ002-004>006-009-010-012-RIZ004-006-007-MAZ004-011-015-241800-
SOUTHERN NEW ENGLAND
 IN CT

CITY           SKY/WX    TMP DP  RH WIND       PRES   REMARKS
BRADLEY INTL   PTSUNNY   55  41  59 N14G26    29.74F
HARTFORD       CLOUDY    55  42  61 MISG      29.74F
DANBURY        PTSUNNY   55  41  59 N16G25    29.79F
WTRBRY/OXFORD  NOT AVBL
BRIDGEPORT     CLOUDY    55  44  66 NW15G22   29.77F
MERIDEN        PTSUNNY   56  42  59 N14G23    29.75F
NEW HAVEN      CLOUDY    58  44  60 NW13      29.74F
CHESTER        CLOUDY    54  43  66 N14G23    29.73F
GROTON         CLOUDY    53  45  74 NW14G21   29.71F
WILLIMANTIC    CLOUDY    52  42  69 NW13G21   29.73F

 IN RI

CITY           SKY/WX    TMP DP  RH WIND       PRES   REMARKS
PROVIDENCE     CLOUDY    54  46  74 NW8       29.70F
BLOCK ISLAND   CLOUDY    55  45  67 N9        29.70F
WESTERLY       CLOUDY    55  45  68 NW8G16    29.71F

 IN MA

CITY           SKY/WX    TMP DP  RH WIND       PRES   REMARKS
BOSTON         CLOUDY    50  46  86 NW9       29.69F
WORCESTER      PTSUNNY   47  41  80 NW16      29.71F
WESTFIELD      PTSUNNY   56  41  57 N18       29.74F
PROVINCETOWN   CLOUDY    54   0  11 N16G23    29.67S
NANTUCKET      CLOUDY    54  48  80 NW20G28   29.65F
$$

ANZ330-335-338-340-345-350-353-355-241800-
COASTAL MARINE OBSERVATIONS


STATION/POSITION TIME  SKY/WX   TEMP    WIND        PRES    VSBY  WAVE
                                AIR SEA DIR/SP/G                  HT/PER
                 (UTC)          (F)     (DEG/KT/KT) (MB)    (MI)  (FT/S)
NY HARB ENTRANCE NOT AVBL
4S FIRE IS       1700               63                N/A           3/ 9
20S FIRE ISLAND  1700            55 63  320/ 16/ 19 1008.1          4/ 4
23SW MTP         1700                                 N/A           4/ 4
HUDSON CANYON    1700            56 66  320/ 19/ 23 1007.8          7/ 6
EXECUTION ROCKS  1700            57 62  320/ 12/ 21   N/A
WESTERN LI SOUND 1700            57     320/ 12/ 17   N/A           1
CENTRAL LI SOUND 1600            55 63  320/ 16/ 21   N/A           2/ 4
EASTERN LI SOUND 1600            55 62  340/ 16/ 21   N/A
ROBBINS REEF     1700            56     320/ 14/ 17 1008.0
$$


>>>>>>>>>>>>>>>>>>>>>>>>>>>> KEY <<<<<<<<<<<<<<<<<<<<<<<<<<<
>                                                          <
>     SKY/WX - SKY CONDITION/PRESENT WEATHER               <
>     TMP    - TEMPERATURE IN FAHRENHEIT                   <
>     DP     - DEWPOINT IN FAHRENHEIT                      <
>     RH     - RELATIVE HUMIDITY IN PERCENT                <
>     WIND   - DIRECTION AND SPEED IN MPH                  <
>     PRES   - MEAN SEA LEVEL PRESSURE IN INCHES OF HG     <
>     WCI    - WIND CHILL INDEX                            <
>     VSB    - VISIBILITY IN MILES                         <
>     HX     - HEAT INDEX                                  <
>     TC     - TEMPERATURE IN CELSIUS                      <
>     VRB    - VARIABLE WIND DIRECTION                     <
>                                                          <
>>>>>>>>>>>>>>>>>>>>>>>>>>>> KEY <<<<<<<<<<<<<<<<<<<<<<<<<<<





USA.gov is the U.S. government's official web portal to all federal, state and local government web resources and services.